User: anonymous   Login
Location: Bow
(51.5261°N, 0.0167°W)
Time: 17:30:55
(UTC+00:00)
Language:

Cosmos 1300 Rocket - Orbit

View from above orbital plane
View from above orbital plane
View from above satellite
View from above satellite

Ground track
Ground track

The orbit data is extracted from the following two-line orbital elements,

1 12786U 81082B   20334.12374723  .00000129  00000-0  12253-4 0  9993
2 12786  82.4905 219.1881 0018809  55.0628 305.2351 14.84806570121912
Epoch (UTC): 29 November 2020 02:58:11
Eccentricity: 0.0018809
inclination: 82.4905°
perigee height: 601 km
apogee height: 627 km
right ascension of ascending node: 219.1881°
argument of perigee: 55.0628°
revolutions per day: 14.84806570
mean anomaly at epoch: 305.2351°
orbit number at epoch: 12191

The dashed part of the orbit path shows where the satellite is in the earth's shadow,  

DLR